Tracking 28125 objects as of 2-Oct-2023
HD Live streaming from Space Station
objects crossing your sky now

THORAD DELTA 1 DEB

Track THORAD DELTA 1 DEB now!
10-day predictions


NORAD ID: 10393
Int'l Code: 1974-089EJ
Perigee: 1,456.7 km
Apogee: 1,707.9 km
Inclination: 101.5 °
Period: 117.6 minutes
Semi major axis: 7953 km
RCS: 0.0302 m2 (small)
Launch date: November 15, 1974
Source: United States (US)
Launch site: AIR FORCE WESTERN TEST RANGE (AFWTR)

Note: This is SATELLITE DEBRIS
Your satellite tracking list
Your tracking list is empty




NASA's NSSDC Master Catalog

Two Line Element Set (TLE):
1 10393U 74089EJ  23274.22893542 -.00000002  00000-0  34409-3 0  9993
2 10393 101.5003 267.6721 0157886 313.4208  57.1490 12.24004636188882
Source of the keplerian elements: AFSPC